#timestamp,LO_Frequency,Hit,StdDev 
1711562415.8,286047002.7,P
1711562435.7,286047000.6,N
1711562455.5,286047000.4,N
1711562475.3,286047000.4,N
1711562495.2,286047000.7,N
1711562515.0,286047000.5,N
1711562515.9,286047000.5,N
1711562535.8,286047000.4,N
1711562555.6,286046998.2,N
1711562575.4,286047000.6,N
1711562595.3,286047001.0,N
1711562615.1,286047000.3,N
1711562635.8,286047000.3,N
1711562655.7,286047002.6,Y
1711562675.5,286047002.4,P
1711562695.4,286047002.4,N
1711562715.2,286047000.6,N
1711562735.0,286047000.0,N
1711562735.9,286047000.0,N
1711562755.8,286046999.8,N
1711562775.6,286046999.7,N
1711562795.4,286047002.5,N
1711562815.3,286047001.3,N
1711562835.1,286047002.3,N
1711562855.9,286047002.3,N
1711562875.7,286047001.8,N
1711562895.5,286047001.5,N
1711562915.4,286047001.4,N
1711562935.2,286047001.4,N
1711562955.0,286047001.7,N
1711562955.9,286047001.7,N
1711562975.8,286047002.8,N
1711562995.6,286046999.7,N
1711563015.5,286047000.6,N
1711563035.3,286047000.1,N
1711563055.1,286046998.2,N
1711563075.9,286046998.3,N
1711563095.7,286047001.2,N
1711563115.5,286047001.0,N
1711563135.4,286047000.8,N
1711563155.2,286047000.5,N
1711563175.1,286046998.6,N
1711563176.0,286046998.6,N
1711563195.8,286047000.7,N
1711563215.6,286047001.1,N
1711563235.5,286047000.3,N
1711563255.3,286047000.3,N
1711563275.1,286046999.7,N
1711563295.9,286047000.0,N
1711563315.7,286047001.1,N
1711563335.6,286047000.9,N
1711563355.4,286047001.1,N
1711563375.2,286046998.9,N
1711563395.1,286046998.1,N
1711563396.0,286046998.1,N
1711563415.8,286047000.7,N
1711563435.6,286047001.2,N
1711563455.5,286046998.3,N
1711563475.3,286046998.5,N
1711563495.2,286047001.0,N
1711563515.9,286046999.8,N
1711563535.7,286047002.3,N
1711563555.6,286047002.6,N
1711563575.4,286047001.8,N
1711563595.2,286047001.9,N
1711563615.1,286047002.0,N
1711563616.0,286047002.0,N
1711563635.8,286047002.1,N
1711563655.7,286047002.5,N
1711563675.5,286047001.6,N
1711563695.3,286047002.2,N
1711563715.2,286047002.8,N
1711563735.0,286047000.0,N
1711563735.9,286047000.0,N
1711563755.7,286047001.1,N
1711563775.6,286047001.1,N
1711563795.4,286047000.7,N
1711563815.3,286047000.4,N
1711563835.1,286047002.8,N
1711563836.0,286047002.8,N
1711563855.8,286047002.6,N
1711563875.7,286046999.7,N
1711563895.5,286046999.7,N
1711563915.4,286046998.1,N
1711563935.2,286047000.0,N
1711563955.0,286047002.8,N
1711563955.9,286047002.8,N
1711563975.8,286047002.8,N
1711563995.6,286047002.6,N
1711564015.4,286046999.8,N
1711564035.3,286047002.4,N
1711564055.1,286046999.7,N
1711564075.9,286046999.8,N
1711564095.7,286046999.9,N
1711564115.5,286047000.1,N
1711564135.4,286046999.8,N
1711564155.2,286047000.2,N
1711564175.0,286047000.4,N
1711564175.9,286047000.4,N
1711564195.8,286046999.7,N
1711564215.6,286047002.3,N
1711564235.5,286047000.1,N
1711564255.3,286047002.8,N
1711564275.1,286047000.2,N
1711564295.9,286047000.2,N
1711564315.7,286046999.7,N
1711564335.5,286046999.7,N
1711564355.4,286047002.8,N
1711564375.2,286047002.6,N
1711564395.1,286047002.4,N
1711564396.0,286047002.4,N
1711564415.8,286047001.9,N
1711564435.6,286047002.0,N
1711564455.5,286047002.8,N
1711564475.3,286047001.5,N
1711564495.1,286047002.7,N
1711564515.9,286047002.6,N
1711564535.7,286047002.6,N
1711564555.6,286047003.9,Y
1711564575.4,286047002.2,P
1711564595.2,286047001.4,N
1711564615.1,286047002.7,P
1711564616.0,286047002.7,Y
1711564635.8,286046998.8,P
1711564655.7,286046999.6,N
1711564675.5,286046999.2,N
1711564695.3,286046996.9,N
1711564715.2,286046999.2,N
1711564735.0,286046997.4,N
1711564735.9,286046997.4,N
1711564755.7,286046996.5,N
1711564775.6,286046997.2,N
1711564795.4,286046999.5,N
1711564815.3,286046998.9,N
1711564835.1,286046996.6,N
1711564855.8,286046996.7,N
1711564875.7,286046999.6,N
1711564895.5,286046998.9,N
1711564915.4,286046999.3,N
1711564935.2,286046999.3,N
1711564955.0,286046996.6,N
1711564955.9,286046996.6,N
1711564975.8,286046999.5,N
1711564995.6,286046999.4,N
1711565015.5,286046999.6,N
1711565035.3,286046999.3,N
1711565055.1,286047000.7,N
1711565075.9,286046999.2,N
1711565095.7,286046999.5,N
1711565115.5,286046999.4,N
1711565135.4,286046998.2,N
1711565155.2,286046998.9,N
1711565175.1,286046999.5,N
1711565176.0,286046999.5,N
1711565195.8,286046999.3,N
1711565215.6,286046999.2,N
1711565235.5,286046996.6,N
1711565255.3,286046998.4,N
1711565275.2,286046999.3,N
1711565295.9,286046998.7,N
1711565315.7,286047001.2,N
1711565335.6,286046998.9,N
1711565355.4,286046998.4,N
1711565375.3,286046999.3,N
1711565395.1,286046998.9,N
1711565396.0,286046998.9,N
1711565415.8,286046998.6,N
1711565435.7,286046998.6,N
1711565455.5,286047001.2,N
1711565475.3,286047000.8,N
1711565495.2,286047001.2,N
1711565515.0,286046998.1,N
1711565515.9,286046998.1,N
1711565535.8,286046998.4,N
1711565555.6,286046999.6,N
1711565575.4,286046999.3,N
1711565595.3,286046999.2,N
1711565615.1,286046999.0,N
1711565635.8,286046996.5,Y
1711565655.7,286046998.4,P
1711565675.5,286046998.2,P
1711565695.4,286046998.1,P
1711565715.2,286047000.2,N
1711565735.0,286047000.3,N
1711565735.9,286047000.3,N
1711565755.8,286047000.4,N
1711565775.6,286046998.2,N
1711565795.4,286047000.5,N
1711565815.3,286046999.9,N
1711565835.1,286047002.2,N
1711565855.9,286047002.0,N
1711565875.7,286047001.5,N
1711565895.5,286047000.9,N
1711565915.4,286046999.7,N
1711565935.2,286046999.9,N
1711565955.0,286047002.7,N
1711565955.9,286047002.7,N
1711565975.8,286046999.7,N
1711565995.6,286047001.1,N
